CZ-4B DEB, 43430

Orbit data source: Space-Track

CZ-4B DEB, 43430 is space debris in LEO originally from a launch on Thu, 15 Jun 2017 UTC launched from the Jiuquan Satellite Launch Center, China (JSC). Debris objects in space refer to the collection of defunct objects orbiting the Earth. Examples of debris include non-operational satellites, rocket bodies, and fragments generated from explosions, collisions, or faulty payload assembly.

Loading next visibility...
Identifier
43430, 2017-034F
Orbit
LEO
Country
Flag of CNCN / PRC
Related business
Manufacturer
SAST
Mission
Spacecraft
Bus & Motor
Unknown
Mass
Unknown
Launch date (UTC)
2017-06-15 (9 years ago)
Launch vehicle
Unknown
Launch site
Jiuquan Satellite Launch Center, China (JSC)
Object type
Payload
Rocket body
Debris
Shape & HBR
Unknown shape, 0.1 m
Radar Cross Section
Small (<0.1 m²)

Expand to show TLE details & history
Last TLE update: 8 hours ago

TLE from 8 hours ago
0 CZ-4B DEB
1 43430U 17034F   26170.11533581  .00006260  00000-0  48789-3 0  9995
2 43430  42.9909  84.2161 0123054 198.9349 160.6892 14.95984485476678
Epoch: 2026-06-19T02:46Z
TLE epoch observation values (Epoch: 2026-06-19T02:46:05.013Z)
Latitude
-0.00002°
Longitude
135.34625°
Altitude
659.995 km
Speed
7.485 km/s
True Right ascension
05h 36m 51s
True Declination
0° 00' 00"
Sunlit
Object was in daylight at epoch
Visualization orbit readout
Latitude
Unknown
Longitude
Unknown
Altitude
Unknown
Speed
Unknown
Apparent Right ascension
Unknown
Apparent Declination
Unknown
Sunlit
N/A
Visualization observer readout
Local Sidereal Time
21:39:01
Azimuth
Unknown
Elevation
Unknown
Doppler factor
Unknown
Orbital elements
Apogee altitude
666.877 km
Perigee altitude
495.601 km
Semi-major axis
6,959.376 km
Eccentricity
0.01231
Inclination
42.9909°
RAAN
84.2161°
Arg. of periapsis
198.9349°
True anomaly
161.14883°
Mean anomaly
160.6892°
Eccentric anomaly
160.91968°
Mean motion
3.73842 °/min
Orbital period
96.3 mins
BSTAR
0.00048789
Loading maneuver chart data...
Computing Atmospheric mass density...
Loading historical data...
Loading historical data...
Loading historical data...
Loading historical data...
Loading historical data...
Loading historical data...
Loading historical data...

Documentation

Showing up to 5 results
|